Location: Unspecified
(42.9300°N, 71.1866°W)
Time: 20:05:10
(UTC-04:00)

Cosmos 1674 - Visible Passes

Search period start: 27 May 2016 00:00
Search period end: 06 June 2016 00:00
Orbit: 500 x 526 km, 82.5° (Epoch: 26 May)

Date Brightness Start Highest point End Pass type
(mag) Time Alt. Az. Time Alt. Az. Time Alt. Az.
27 May 3.6 01:22:02 45° NE 01:22:02 45° NE 01:24:55 10° NNE visible
27 May 5.2 02:57:00 10° WNW 02:57:18 10° WNW 02:57:37 10° WNW visible
28 May 3.9 01:06:25 36° NE 01:06:25 36° NE 01:09:08 10° NNE visible
28 May 5.0 02:41:22 12° WNW 02:41:29 12° WNW 02:43:08 10° NW visible
29 May 4.2 00:50:46 30° ENE 00:50:46 30° ENE 00:53:18 10° NNE visible
29 May 4.8 02:25:43 15° WNW 02:25:43 15° WNW 02:27:56 10° NNW visible
30 May 4.4 00:35:07 25° ENE 00:35:07 25° ENE 00:37:25 10° NNE visible
30 May 4.6 02:10:04 18° WNW 02:10:04 18° WNW 02:12:33 10° NNW visible
31 May 4.7 00:19:26 20° ENE 00:19:26 20° ENE 00:21:29 10° NE visible
31 May 4.4 01:54:24 22° WNW 01:54:24 22° WNW 01:57:05 10° NNW visible
01 Jun 4.9 00:03:45 17° ENE 00:03:45 17° ENE 00:05:29 10° NE visible
01 Jun 4.2 01:38:43 27° WNW 01:38:43 27° WNW 01:41:33 10° NNW visible
01 Jun 5.0 23:48:03 14° ENE 23:48:03 14° ENE 23:49:22 10° NE visible
02 Jun 4.0 01:23:01 32° WNW 01:23:01 32° WNW 01:25:58 10° N visible
02 Jun 5.2 23:32:21 12° ENE 23:32:21 12° ENE 23:33:03 10° ENE visible
03 Jun 3.7 01:07:18 39° NW 01:07:18 39° NW 01:10:20 10° N visible
04 Jun 3.5 00:51:34 47° NW 00:51:34 47° NW 00:54:40 10° N visible
05 Jun 3.2 00:35:50 55° NNW 00:35:50 55° NNW 00:38:58 10° N visible
